Other Public Products
Issued by NWS Grand Forks, ND

Home | Current Version | Previous Version | Text Only | Print | Product List | Glossary On
Versions: 1 2 3 4 5 6 7 8 9 10 11 12 13 14 15 16 17 18 19 20 21 22 23 24 25 26 27 28 29 30 31 32 33 34 35 36 37 38 39 40 41 42 43 44 45 46 47 48 49 50
000
FPUS83 KFGF 021731
OPUFGF
PRAIRIE TO PINES WEATHER ROUNDUP
NATIONAL WEATHER SERVICE EASTERN NORTH DAKOTA/GRAND FORKS ND
1200 PM CDT THU OCT 02 2014

 **SATELLITE DATA USED TO AUGMENT SKY COVER AT AUTOMATED STATIONS**
 *****  WEATHER ACROSS EASTERN NORTH DAKOTA  *****

CITY           SKY/WX    TMP DP  RH WIND       PRES   REMARKS
GRAND FORKS    MOSUNNY   62  46  55 W7        29.80S
GRAND FORKS AF SUNNY     63  45  51 N9        29.81S
GRAND CITY NWS   N/A     61 N/A N/A W3          N/A
BUXTON           N/A     64  46  52 NW5         N/A
DEVILS LAKE    SUNNY     59  41  51 SW8       29.78F
FARGO          PTSUNNY   61  49  64 W8        29.82F
WAHPETON ARPT  CLOUDY    59  46  63 SW3       29.85F
$$

 *****  WEATHER ACROSS CENTRAL AND WESTERN NORTH DAKOTA  *****

CITY           SKY/WX    TMP DP  RH WIND       PRES   REMARKS
JAMESTOWN      SUNNY     61  43  51 W8        29.83F
BISMARCK       PTSUNNY   60  43  53 SW8       29.84F
MINOT          PTSUNNY   55  40  56 SW20      29.77R
MINOT AFB      CLOUDY    56  43  60 W18G28    29.76R
GARRISON         N/A     54  43  66 W13       29.81R
WILLISTON      CLOUDY    46  39  76 NW25      29.89R
DICKINSON      SUNNY     55  37  50 W17G26    29.86R
HETTINGER      MOSUNNY   57  36  45 W17       29.90F
$$

 *****  OTHER OBSERVATIONS NORTHEAST NORTH DAKOTA  *****

CITY           SKY/WX    TMP DP  RH WIND       PRES   REMARKS
WALHALLA         N/A     61  41  48 CALM      29.77F
LANGDON        FAIR      63  43  48 SW6       29.77F
CAVALIER       FAIR      63  39  42 NW6       29.78S
GRAFTON        FAIR      61  43  51 W6        29.79S
CANDO          PTSUNNY   63  43  48 SW10      29.77F
FORT TOTTEN      N/A     62  44  52 W5        29.95
ROLLA            N/A    N/A N/A N/A MISG        N/A
RUGBY          FAIR      57  45  62 S9        29.76F
 ***** THE ABOVE OBSERVATIONS ARE NON NWS ARE NOT QUALITY
        CONTROLLED AND MAY MIS-REPORT RAIN FOR SNOW...
$$

 *****  OTHER OBSERVATIONS SOUTHEAST NORTH DAKOTA *****

CITY           SKY/WX    TMP DP  RH WIND       PRES   REMARKS
COOPERSTOWN    NOT AVBL
VALLEY CITY    FAIR      61  41  48 W9        29.83F
OAKES            N/A     63  45  51 W8        29.85F
GWINNER        SUNNY     64  45  48 W9        29.86S
SHEYENNE NWR     N/A     62  47  58 W8        29.95S
BUFFALO          N/A     62  37  38 NW9         N/A
WYNDMERE         N/A     63  50  63 W6          N/A
 ***** THE ABOVE OBSERVATIONS ARE NON NWS ARE NOT QUALITY
       CONTROLLED AND MAY MIS-REPORT RAIN FOR SNOW...
$$

  *****  WEATHER ACROSS NORTHERN MINNESOTA  *****

CITY           SKY/WX    TMP DP  RH WIND       PRES   REMARKS
FLAG ISLAND    PTSUNNY   54  46  76 CALM      29.76S
WARROAD        CLOUDY    55  48  76 W5        29.79S
ROSEAU         PTSUNNY   55  48  76 W3        29.78F
HALLOCK        MOSUNNY   61  46  59 SW3       29.78S
THF RVR FALLS  CLOUDY    57  48  72 W6        29.80F
HALSTAD          N/A     62  45  52 NW9         N/A
FOSSTON        CLOUDY    54  46  76 S6        29.82F
BAUDETTE       CLOUDY    58  46  64 VRB5      29.78F
WASKISH        CLOUDY    55  50  82 CALM      29.80S
CROOKSTON      PTSUNNY   59  48  67 SW6       29.81F
$$
  *****  WEATHER ACROSS CENTRAL AND WEST MINNESOTA  *****

CITY           SKY/WX    TMP DP  RH WIND       PRES   REMARKS
BEMIDJI        CLOUDY    56  47  71 SW3       29.81S
PARK RAPIDS    CLOUDY    54  48  80 W5        29.83S
WADENA         DRIZZLE   54  48  82 SW3       29.84F
DETROIT LAKES  CLOUDY    55  50  82 SW5       29.84F
MOORHEAD         N/A     61  52  72 W3        29.84S
FERGUS FALLS   CLOUDY    55  46  71 CALM      29.86S
ELBOW LAKE     FAIR      53  49  88 W5        29.86F
MORRIS MN      LGT RAIN  55  52  88 CALM      29.86F
STAPLES        LGT RAIN  52  50  93 S5        29.86R
WHEATON        CLOUDY    57  46  67 CALM      29.87F
$$
  *****  WEATHER ELSEWHERE ACROSS MINNESOTA  *****

CITY           SKY/WX    TMP DP  RH WIND       PRES   REMARKS
DULUTH         CLOUDY    56  51  84 S7        29.83R
INTRNTL FALLS  PTSUNNY   58  49  72 VRB6      29.78F
ELY            CLOUDY    55  52  88 SW7       29.81S
CLOQUET        CLOUDY    57  52  82 CALM      29.82F
BRAINERD       LGT RAIN  56  51  84 W9        29.85S
HIBBING        CLOUDY    54  51  90 SW5       29.83R
ALEXANDRIA     CLOUDY    53  50  89 SW3       29.88S
SAINT CLOUD    CLOUDY    59  52  77 W8        29.85F
MINNEAPOLIS    CLOUDY    59  56  89 N5        29.82F
$$

  *****  WEATHER ACROSS SOUTH DAKOTA  *****

CITY           SKY/WX    TMP DP  RH WIND       PRES   REMARKS
SIOUX FALLS    LGT RAIN  56  52  86 N6        29.89F
BROOKINGS      NOT AVBL
WATERTOWN      PTSUNNY   56  50  80 CALM      29.87F
HURON          MOSUNNY   63  48  58 NW12      29.88F
SISSETON         N/A     64  46  52 NW8       29.85F
ABERDEEN       MOSUNNY   63  46  54 W8        29.88F
MITCHELL       MOSUNNY   60  52  74 VRB7      29.90F
PIERRE         SUNNY     60  45  57 VRB6      29.91F
MOBRIDGE       SUNNY     64  44  48 W8        29.86F
RAPID CITY     SUNNY     62  30  29 VRB5      29.96F
$$

  *****  SOME WEATHER IN NEARBY STATES *****

CITY           SKY/WX    TMP DP  RH WIND       PRES   REMARKS
GLASGOW MT     CLOUDY    43  25  49 NW29G38   30.02R
GREAT FALLS MT FLURRIES  34  32  93 NW10      30.25R
CHEYENNE WY    SUNNY     51  26  37 W13G28    30.11F
SCOTTSBLUFF NE SUNNY     57  41  55 W10       30.05F
OMAHA NE       CLOUDY    59  55  87 N13       29.79F
DES MOINES IA  TSTM      66  64  93 CALM      29.74F VSB 3/4
DAVENPORT IA   NOT AVBL
CHICAGO IL     CLOUDY    72  62  71 SW12      29.84F
EAU CLAIRE WI  CLOUDY    64  58  80 CALM      29.81F
LA CROSSE WI   CLOUDY    65  60  84 W6        29.79F
$$

  *****  SOME NATIONAL WEATHER *****

CITY           SKY/WX    TMP DP  RH WIND       PRES   REMARKS
LA GUARDIA NY  PTSUNNY   66  55  67 NE10      30.12F
RALEIGH NC     MOSUNNY   79  64  60 CALM      30.10F
ATLANTA GA     PTSUNNY   81  63  54 SE8       30.11F
NEW ORLEANS LA PTSUNNY   89  76  65 S10       29.98F HX 100
OKLAHOMA CITY  MOSUNNY   75  60  59 NW16      29.80S
ALBUQUERQUE NM SUNNY     57  27  31 N14       30.25S
SALT LAKE CITY MOSUNNY   55  35  47 S12       30.29S
LOS ANGELES CA SUNNY     84  42  22 VRB7      29.97R
BOISE ID       PTSUNNY   57  34  41 E3        30.23S
SEATTLE WA     MOSUNNY   59  48  67 NE5       30.31R
$$

*** WEATHER ACROSS MANITOBA...SASKATCHEWAN AND ONTARIO ***
                ***ONTARIO***

CITY           SKY/WX    TMP DP  RH WIND       PRES   REMARKS
GERALDTON      CLOUDY    55  52  88 SW9       29.81F
THUNDER BAY    CLOUDY    57  54  88 E7        29.82S
SIOUX LOOKOUT  CLOUDY    55  50  82 SW6       29.75
TORONTO        CLOUDY    63  57  82 E9        30.08S
BIG TROUT LK   CLOUDY    54  46  76 W14G23    29.60R
PICKLE LAKE    PTSUNNY   57  45  62 W10       29.70S
DRYDEN         PTSUNNY   57  46  67 SW13      29.74F
KENORA         PTSUNNY   54  46  76 W7        29.76F
$$
                *** MANITOBA***

CITY           SKY/WX    TMP DP  RH WIND       PRES   REMARKS
BRANDON        PTSUNNY   50  45  81 S8        29.73F
DAUPHIN        PTSUNNY   59  46  63 CALM      29.69F
ISLAND LAKE    CLOUDY    50  45  81 W10       29.64
PILOT MOUND      N/A     57  45  62 S10         N/A
THE PAS        CLOUDY    43  39  87 W8        29.71R
THOMPSON       PTSUNNY   45  39  81 W13G21    29.60
WINNIPEG       MOSUNNY   57  43  58 W5        29.77F
LYNN LAKE      CLOUDY    41  36  81 W15G22    29.62R
CHURCHILL      LGT RAIN  39  37  93 W20G28    29.32R
GILLAM         CLOUDY    46  41  81 W18G29    29.49R
$$
                ***SASKATCHEWAN***

CITY           SKY/WX    TMP DP  RH WIND       PRES   REMARKS
ESTEVAN        LGT RAIN N/A N/A N/A NW21G26     N/A
KINDERSLEY     PTSUNNY   34  27  75 NW24G38   30.07R WCI  21
LLOYDMINSTER   CLOUDY    34  25  69 NW24G33   30.07R WCI  21
PRINCE ALBERT  LGT RAIN  36  32  87 N17G32    29.87
REGINA         CLOUDY    39  32  75 NW23G32   29.89


USA.gov is the U.S. government's official web portal to all federal, state and local government web resources and services.